Location: Clatteringshaws Loch
(55.0508°N, 4.2860°W)
Time: 13:05:00
(UTC+01:00)

ALOS - Visible Passes

Search period start: 27 April 2015 00:00
Search period end: 07 May 2015 00:00
Orbit: 687 x 688 km, 97.9° (Epoch: 26 April)

Date Brightness Start Highest point End Pass type
(mag) Time Alt. Az. Time Alt. Az. Time Alt. Az.
27 Apr 4.7 22:50:10 10° SW 22:53:35 19° W 22:56:54 10° NW visible
28 Apr 3.0 21:49:02 10° S 21:53:39 55° W 21:58:16 10° NNW visible
29 Apr 4.1 22:27:56 10° SSW 22:32:00 28° W 22:36:00 10° NNW visible
30 Apr 2.4 21:27:33 10° SSE 21:32:14 81° WSW 21:36:58 10° NNW visible
30 Apr 4.9 23:07:59 10° WSW 23:10:34 14° W 23:13:00 10° NW visible
01 May 3.5 22:06:02 10° SSW 22:10:28 40° W 22:14:53 10° NNW visible
02 May 4.6 22:45:20 10° SW 22:48:54 21° W 22:52:23 10° NW visible
03 May 2.9 21:44:22 10° S 21:48:59 59° W 21:53:39 10° NNW visible
03 May 5.2 23:27:05 10° W 23:27:36 10° W 23:27:52 10° WNW visible
04 May 4.0 22:23:10 10° SSW 22:27:18 30° W 22:31:25 10° NNW visible
05 May 4.8 23:03:01 10° WSW 23:05:51 15° W 23:08:32 10° NW visible
06 May 3.4 22:01:17 10° S 22:05:46 43° W 22:10:15 10° NNW visible
